User: anonymous   Login
Location: Unspecified
(44.0026°N, 0.0000°E)
Time: 17:17:03
(UTC+00:00)
Language:

Cosmos 1140 - Orbit

View from above orbital plane
View from above orbital plane
View from above satellite
View from above satellite

Ground track
Ground track

The orbit is defined by the following mean orbital elements,

1 11573U          26088.05976197 +.00000000 +00000-0 +60861-4 0 00003
2 11573  74.0670 213.6847 0016172 333.4662  26.5662 14.37598246    04
Epoch (UTC): 29 March 2026 01:26:03
Eccentricity: 0.0016172
inclination: 74.0670°
perigee height: 755 km
apogee height: 778 km
right ascension of ascending node: 213.6847°
argument of perigee: 333.4662°
revolutions per day: 14.37598246
mean anomaly at epoch: 26.5662°

The dashed part of the orbit path shows where the satellite is in the earth's shadow,  

DLR